Regional Weather Roundup
Issued by NWS Burlington, VT

Home | Current Version | Previous Version | Text Only | Print | Product List | Glossary On
Versions: 1 2 3 4 5 6 7 8 9 10 11 12 13 14 15 16 17 18 19 20 21 22 23 24 25 26 27 28 29 30 31 32 33 34 35 36 37 38 39 40 41 42 43 44 45 46 47 48 49 50
000
ASUS41 KBTV 232030
RWRBTV
VERMONT REGIONAL WEATHER ROUNDUP
NATIONAL WEATHER SERVICE BURLINGTON VT
400 PM EDT TUE SEP 23 2014

NOTE: "FAIR" INDICATES FEW OR NO CLOUDS BELOW 12,000 FEET WITH NO
SIGNIFICANT WEATHER AND/OR OBSTRUCTIONS TO VISIBILITY.

* THESE REPORTS ARE NOT UNDER NWS QUALITY CONTROL AND/OR DO NOT
  REPORT WEATHER SUCH AS PRECIPITATION AND FOG.

VTZ001>019-232100-
_____VERMONT_____


CITY           SKY/WX    TMP DP  RH WIND       PRES   REMARKS
BURLINGTON     MOCLDY    63  49  60 SW9       30.27R
MONTPELIER     CLOUDY    59  48  67 VRB6      30.30R
MORRISVILLE    CLOUDY    59  47  64 VRB5      30.28R
ST. JOHNSBURY*   N/A     62  46  55 MISG      30.24R
MIDDLEBURY*    CLOUDY    61  48  63 CALM      30.28S
RUTLAND*       CLOUDY    61  46  59 SW5       30.29S
HIGHGATE*      MOCLDY    61  49  65 SW3       30.26R
NEWPORT*       FAIR     N/A N/A N/A W6        30.26S
BENNINGTON     MOCLDY    64  47  53 SW8       30.31S
SUTTON*          N/A     57 N/A N/A MISG        N/A
GALLUP MILLS*    N/A     59 N/A N/A MISG        N/A
UNION VILLAGE*   N/A     64 N/A N/A MISG        N/A
MT. MANSFIELD*   N/A     43 N/A N/A NW20        N/A

_____LAKE CHAMPLAIN_____


CITY           SKY/WX    TMP DP  RH WIND       PRES   REMARKS
BURTON ISLAND*   N/A     63  50  63 S6          N/A
COLCHESTER RF*   N/A     63  52  67 W18         N/A
DIAMOND ISL*     N/A     64  50  59 SW1         N/A

$$

NYZ007-026>031-035-052-083-232100-
_____NORTHERN NEW YORK_____


CITY           SKY/WX    TMP DP  RH WIND       PRES   REMARKS
PLATTSBURGH    CLOUDY    65  51  60 VRB5      30.25R
SARANAC LAKE   CLOUDY    52  50  93 SW9       30.28R
MASSENA        MOCLDY    62  53  72 SW8       30.28R
OGDENSBURG*    CLOUDY    61  54  77 CALM      30.29R
POTSDAM*       CLOUDY    61  55  82 SW7       30.29S
PARISHVILLE*     N/A     55 N/A N/A W6          N/A
WATERTOWN      CLOUDY    64  52  64 SW8       30.30S
ALBANY         PTCLDY    69  49  48 W9        30.31S
GLENS FALLS    MOCLDY    68  51  54 W7        30.29R

$$
NHZ002-005-011-232100-
_____NEW HAMPSHIRE_____


CITY           SKY/WX    TMP DP  RH WIND       PRES   REMARKS
LEBANON        MOCLDY    67  45  45 W12       30.26R
KEENE          CLEAR     68  43  40 W9        30.28S
MT WASHINGTON  FOG       32  32 100 NW49G59     N/A  VSB 0
PLYMOUTH       FAIR      65  51  60 W13G20    30.24S
WHITEFIELD       N/A     61  47  59 MISG      30.24S

$$

_____REGIONAL QUEBEC LOCATIONS_____


CITY           SKY/WX    TMP DP  RH WIND       PRES   REMARKS
MONTREAL       MOCLDY    61  50  67 W13       30.25R
QUEBEC CITY    LGT RAIN  57  50  77 SW21      30.15S
SHERBROOKE     MOCLDY    57  48  72 W13G18    30.23R

_____REGIONAL ONTARIO LOCATIONS_____


CITY           SKY/WX    TMP DP  RH WIND       PRES   REMARKS
OTTAWA         CLOUDY    61  54  77 NW6       30.27R

______KEY______
VSB  - VISIBILITY IN MILES
WCI  - WIND CHILL INDEX
HX   - HEAT INDEX
$$



USA.gov is the U.S. government's official web portal to all federal, state and local government web resources and services.